Location: Garshuizen
(53.3675°N, 6.7248°E)
Time: 10:58:27
(UTC+00:00)

Intercosmos 24 - Pass Details

Date: 15 May 2026
Orbit: 497 x 2352 km, 82.6° (Epoch: 8 June)

Event Time Altitude Azimuth Distance (km) Brightness Sun altitude
Rises 22:45:46 0° 351° (N) 2,971 9.4 -17.0°
Reaches altitude 10° 22:48:16 10° 358° (N) 1,903 7.9 -17.0°
Maximum altitude 22:52:04 45° 72° (ENE) 709 4.4 -17.1°
Enters shadow 22:53:24 30° 126° (SE) 921 4.6 -17.2°
